When you browse on this site, cookies collect data to enhance your experience and personalize the content and advertising you see.
Visit our Privacy Policy to learn more. By continuing to use the site, you agree to this use of cookies and data.
  • In Hungary
  • List of Countries
  • For 7 days
  • Water Temperature
  • Weather Map
  • News
  • Weather Widgets
  • user-avatar
    Login

    Hourly Weather Shatra

    Today, 14 October, Monday

    Time Temperature Precipitation Wind Pressure Humidity
    00:00 +7°C° 0 mm 5 mps 727 mmHg 91%
    01:00 +6°C° 0 mm 4 mps 727 mmHg 91%
    02:00 +6°C° 0 mm 4 mps 727 mmHg 91%
    03:00 +6°C° 0 mm 5 mps 727 mmHg 90%
    04:00 +5°C° 0 mm 5 mps 728 mmHg 90%
    05:00 +5°C° 0 mm 5 mps 728 mmHg 91%
    06:00 +5°C° 0 mm 5 mps 728 mmHg 92%
    07:00 +3°C° 0 mm 5 mps 728 mmHg 93%
    08:00 +4°C° 0 mm 6 mps 728 mmHg 90%
    09:00 +4°C° 0 mm 6 mps 728 mmHg 87%
    10:00 +5°C° 0 mm 7 mps 729 mmHg 85%
    11:00 +5°C° 0.1 mm 7 mps 729 mmHg 81%
    12:00 +6°C° 0.1 mm 7 mps 730 mmHg 78%
    13:00 +6°C° 0.1 mm 7 mps 730 mmHg 75%
    14:00 +6°C° 0.1 mm 7 mps 730 mmHg 74%
    15:00 +6°C° 0.1 mm 7 mps 731 mmHg 74%
    16:00 +7°C° 0.1 mm 6 mps 731 mmHg 74%
    17:00 +7°C° 0 mm 6 mps 731 mmHg 77%
    18:00 +5°C° 0 mm 6 mps 732 mmHg 80%
    19:00 +5°C° 0 mm 6 mps 732 mmHg 83%
    20:00 +5°C° 0.1 mm 6 mps 732 mmHg 85%
    21:00 +5°C° 0.1 mm 6 mps 732 mmHg 87%
    22:00 +5°C° 0.1 mm 5 mps 732 mmHg 88%
    23:00 +5°C° 0 mm 5 mps 732 mmHg 89%

    Tomorrow, 15 October, Tuesday

    Time Temperature Precipitation Wind Pressure Humidity
    00:00 +5°C° 0 mm 5 mps 732 mmHg 90%
    01:00 +4°C° 0 mm 4 mps 732 mmHg 91%
    02:00 +4°C° 0 mm 4 mps 732 mmHg 92%
    03:00 +4°C° 0 mm 4 mps 732 mmHg 93%
    04:00 +4°C° 0 mm 4 mps 732 mmHg 93%
    05:00 +4°C° 0.5 mm 4 mps 732 mmHg 94%
    06:00 +4°C° 0.5 mm 4 mps 731 mmHg 94%
    07:00 +4°C° 0.5 mm 4 mps 730 mmHg 95%
    08:00 +4°C° 1.9 mm 6 mps 729 mmHg 94%
    09:00 +4°C° 1.9 mm 7 mps 728 mmHg 94%
    10:00 +5°C° 1.9 mm 8 mps 727 mmHg 94%
    11:00 +6°C° 1.1 mm 8 mps 726 mmHg 93%
    12:00 +7°C° 1.1 mm 9 mps 726 mmHg 93%
    13:00 +10°C° 1.1 mm 9 mps 725 mmHg 92%
    14:00 +10°C° 0.2 mm 9 mps 725 mmHg 91%
    15:00 +10°C° 0.2 mm 8 mps 725 mmHg 89%
    16:00 +10°C° 0.2 mm 8 mps 725 mmHg 87%
    17:00 +10°C° 0.4 mm 7 mps 726 mmHg 88%
    18:00 +9°C° 0.4 mm 6 mps 726 mmHg 89%
    19:00 +9°C° 0.4 mm 6 mps 727 mmHg 89%
    20:00 +8°C° 0.1 mm 5 mps 727 mmHg 89%
    21:00 +7°C° 0.1 mm 5 mps 728 mmHg 88%
    22:00 +5°C° 0.1 mm 5 mps 729 mmHg 88%
    23:00 +5°C° 0.1 mm 5 mps 729 mmHg 87%

    Day after tomorrow, 16 October, Wednesday

    Time Temperature Precipitation Wind Pressure Humidity
    00:00 +5°C° 0.1 mm 5 mps 730 mmHg 86%
    01:00 +5°C° 0.1 mm 5 mps 731 mmHg 86%
    02:00 +3°C° 0 mm 5 mps 731 mmHg 86%
    03:00 +2°C° 0 mm 5 mps 732 mmHg 87%
    04:00 +1°C° 0 mm 4 mps 733 mmHg 87%
    05:00 +1°C° 0 mm 4 mps 733 mmHg 88%
    06:00 0°C° 0 mm 5 mps 733 mmHg 88%
    07:00 0°C° 0 mm 5 mps 734 mmHg 89%
    08:00 +1°C° 0 mm 5 mps 734 mmHg 86%
    09:00 +1°C° 0 mm 5 mps 735 mmHg 83%
    10:00 +1°C° 0 mm 5 mps 736 mmHg 80%
    11:00 +2°C° 0.1 mm 5 mps 736 mmHg 77%
    12:00 +2°C° 0.1 mm 5 mps 737 mmHg 74%
    13:00 +3°C° 0.1 mm 5 mps 737 mmHg 70%
    14:00 +2°C° 0 mm 5 mps 737 mmHg 70%
    15:00 +2°C° 0 mm 5 mps 738 mmHg 70%
    16:00 +2°C° 0 mm 5 mps 738 mmHg 70%
    17:00 +1°C° 0 mm 5 mps 738 mmHg 72%
    18:00 +1°C° 0 mm 4 mps 739 mmHg 74%
    19:00 0°C° 0 mm 4 mps 739 mmHg 76%
    20:00 +1°C° 0 mm 3 mps 739 mmHg 77%
    21:00 +1°C° 0 mm 3 mps 740 mmHg 78%
    22:00 0°C° 0 mm 3 mps 740 mmHg 79%
    23:00 +1°C° 0 mm 2 mps 740 mmHg 81%

    17 October, Thursday

    Time Temperature Precipitation Wind Pressure Humidity
    00:00 -1°C° 0 mm 2 mps 740 mmHg 83%
    01:00 -1°C° 0 mm 2 mps 741 mmHg 85%
    02:00 -1°C° 0 mm 2 mps 741 mmHg 86%
    03:00 +1°C° 0 mm 1 mps 741 mmHg 87%
    04:00 +1°C° 0 mm 1 mps 741 mmHg 88%
    05:00 0°C° 0 mm 1 mps 742 mmHg 88%
    06:00 0°C° 0 mm 1 mps 742 mmHg 88%
    07:00 0°C° 0 mm 1 mps 742 mmHg 88%
    08:00 +1°C° 0 mm 1 mps 742 mmHg 83%
    09:00 +1°C° 0 mm 2 mps 742 mmHg 77%
    10:00 +1°C° 0 mm 3 mps 742 mmHg 72%
    11:00 +2°C° 0 mm 3 mps 741 mmHg 71%
    12:00 +1°C° 0 mm 4 mps 741 mmHg 69%
    13:00 +3°C° 0 mm 4 mps 741 mmHg 67%
    14:00 +3°C° 0.1 mm 4 mps 740 mmHg 69%
    15:00 +3°C° 0.1 mm 4 mps 740 mmHg 70%
    16:00 +3°C° 0.1 mm 4 mps 740 mmHg 71%
    17:00 +2°C° 0 mm 5 mps 739 mmHg 74%
    18:00 +1°C° 0 mm 5 mps 738 mmHg 77%
    19:00 +1°C° 0 mm 5 mps 738 mmHg 80%
    20:00 +1°C° 0 mm 6 mps 737 mmHg 77%
    21:00 0°C° 0 mm 7 mps 737 mmHg 73%
    22:00 +1°C° 0 mm 8 mps 736 mmHg 70%
    23:00 +1°C° 0 mm 8 mps 736 mmHg 68%

    18 October, Friday

    Time Temperature Precipitation Wind Pressure Humidity
    00:00 +1°C° 0 mm 8 mps 735 mmHg 67%
    01:00 +1°C° 0 mm 9 mps 734 mmHg 65%
    02:00 +1°C° 0 mm 9 mps 734 mmHg 64%
    03:00 +1°C° 0 mm 9 mps 733 mmHg 64%
    04:00 +1°C° 0 mm 9 mps 733 mmHg 63%
    05:00 +1°C° 0.1 mm 8 mps 732 mmHg 65%
    06:00 0°C° 0.1 mm 8 mps 731 mmHg 66%
    07:00 0°C° 0.1 mm 8 mps 730 mmHg 68%
    08:00 0°C° 0.5 mm 8 mps 730 mmHg 73%
    09:00 +1°C° 0.5 mm 8 mps 729 mmHg 78%
    10:00 +1°C° 0.5 mm 9 mps 729 mmHg 83%
    11:00 +2°C° 0.3 mm 8 mps 729 mmHg 84%
    12:00 +2°C° 0.3 mm 8 mps 729 mmHg 85%
    13:00 +4°C° 0.3 mm 7 mps 729 mmHg 86%
    14:00 +3°C° 0.3 mm 7 mps 729 mmHg 82%
    15:00 +2°C° 0.3 mm 7 mps 730 mmHg 77%
    16:00 0°C° 0.3 mm 7 mps 730 mmHg 73%
    17:00 -1°C° 0 mm 7 mps 731 mmHg 73%
    18:00 -2°C° 0 mm 7 mps 732 mmHg 73%
    19:00 -2°C° 0 mm 6 mps 732 mmHg 72%
    20:00 -3°C° 0 mm 6 mps 733 mmHg 74%
    21:00 -3°C° 0 mm 7 mps 733 mmHg 76%
    22:00 -4°C° 0 mm 7 mps 734 mmHg 78%
    23:00 -4°C° 0 mm 7 mps 734 mmHg 78%

    19 October, Saturday

    Time Temperature Precipitation Wind Pressure Humidity
    00:00 -4°C° 0 mm 7 mps 734 mmHg 78%
    01:00 -4°C° 0 mm 7 mps 735 mmHg 78%
    02:00 -4°C° 0 mm 7 mps 735 mmHg 77%
    03:00 -4°C° 0 mm 7 mps 736 mmHg 76%
    04:00 -5°C° 0 mm 8 mps 736 mmHg 76%
    05:00 -6°C° 0 mm 7 mps 737 mmHg 76%
    06:00 -6°C° 0 mm 7 mps 737 mmHg 75%
    07:00 -5°C° 0 mm 6 mps 738 mmHg 75%
    08:00 -5°C° 0 mm 6 mps 739 mmHg 72%
    09:00 -4°C° 0 mm 6 mps 739 mmHg 69%
    10:00 -4°C° 0 mm 6 mps 740 mmHg 67%
    11:00 -2°C° 0 mm 5 mps 740 mmHg 62%
    12:00 -1°C° 0 mm 5 mps 741 mmHg 58%
    13:00 0°C° 0 mm 4 mps 741 mmHg 53%
    14:00 0°C° 0 mm 4 mps 741 mmHg 54%
    15:00 -1°C° 0 mm 4 mps 741 mmHg 55%
    16:00 0°C° 0 mm 3 mps 741 mmHg 56%
    17:00 -1°C° 0 mm 3 mps 742 mmHg 61%
    18:00 -2°C° 0 mm 2 mps 742 mmHg 66%
    19:00 -3°C° 0 mm 2 mps 742 mmHg 71%
    20:00 -1°C° 0 mm 1 mps 742 mmHg 71%
    21:00 -1°C° 0 mm 1 mps 742 mmHg 71%
    22:00 -2°C° 0 mm 0 mps 743 mmHg 71%
    23:00 -1°C° 0 mm 1 mps 743 mmHg 71%
    Show more